Estación de El Tambo INIA
Ultimos registro cada 15 minutos 63
| N° | Estación | Fecha / Hora | Temperatura | Humedad | Lluvia | Velocidad | Dirección | Radiación | Presion |
| 63 | El Tambo INIA | 05-05-2026 15:30 | 18,3 | 55,6 | 0 | 0 | 68 | 97 | 983 |
| 62 | El Tambo INIA | 05-05-2026 15:15 | 18,4 | 56,1 | 0 | 0 | 315 | 90 | 983 |
| 61 | El Tambo INIA | 05-05-2026 15:00 | 18,3 | 54,2 | 0 | 0,1 | 242 | 125 | 983 |
| 60 | El Tambo INIA | 05-05-2026 14:45 | 18,2 | 55,9 | 0 | 0,3 | 262 | 131 | 983 |
| 59 | El Tambo INIA | 05-05-2026 14:30 | 18,3 | 57,2 | 0 | 0,7 | 280 | 149 | 983 |
| 58 | El Tambo INIA | 05-05-2026 14:15 | 18,1 | 54,8 | 0 | 0,4 | 268 | 173 | 983 |
| 57 | El Tambo INIA | 05-05-2026 14:00 | 17,9 | 54,5 | 0 | 0,3 | 203 | 188 | 983 |
| 56 | El Tambo INIA | 05-05-2026 13:45 | 17,8 | 56 | 0 | 0,4 | 263 | 175 | 983 |
| 55 | El Tambo INIA | 05-05-2026 13:30 | 17,6 | 54,3 | 0 | 0,6 | 252 | 178 | 983 |
| 54 | El Tambo INIA | 05-05-2026 13:15 | 17,2 | 56,8 | 0 | 0,4 | 221 | 184 | 983 |
| 53 | El Tambo INIA | 05-05-2026 13:00 | 17,3 | 57,6 | 0 | 0,6 | 232 | 158 | 983 |
| 52 | El Tambo INIA | 05-05-2026 12:45 | 17,1 | 55 | 0 | 0,4 | 229 | 209 | 983 |
| 51 | El Tambo INIA | 05-05-2026 12:30 | 17 | 57,6 | 0 | 0 | 222 | 176 | 983 |
| 50 | El Tambo INIA | 05-05-2026 12:15 | 16,6 | 59 | 0 | 0 | 259 | 187 | 983 |
| 49 | El Tambo INIA | 05-05-2026 12:00 | 16,3 | 58,7 | 0 | 0,1 | 257 | 181 | 983 |
| 48 | El Tambo INIA | 05-05-2026 11:45 | 15,7 | 61,4 | 0 | 0,4 | 243 | 160 | 983 |
| 47 | El Tambo INIA | 05-05-2026 11:30 | 15,2 | 63,6 | 0 | 0,3 | 220 | 172 | 984 |
| 46 | El Tambo INIA | 05-05-2026 11:15 | 14,7 | 63,3 | 0 | 0,3 | 248 | 141 | 984 |
| 45 | El Tambo INIA | 05-05-2026 11:00 | 14,4 | 66,3 | 0 | 0,7 | 223 | 154 | 984 |
| 44 | El Tambo INIA | 05-05-2026 10:45 | 14 | 66,4 | 0 | 0,5 | 219 | 138 | 984 |
| 43 | El Tambo INIA | 05-05-2026 10:30 | 13,4 | 67,6 | 0 | 1,2 | 189 | 108 | 984 |
| 42 | El Tambo INIA | 05-05-2026 10:15 | 13 | 71,4 | 0 | 1,4 | 198 | 110 | 983 |
| 41 | El Tambo INIA | 05-05-2026 10:00 | 12,6 | 74,8 | 0 | 1,9 | 274 | 90 | 983 |
| 40 | El Tambo INIA | 05-05-2026 09:45 | 12,4 | 74,9 | 0 | 2,1 | 285 | 64 | 983 |
| 39 | El Tambo INIA | 05-05-2026 09:30 | 12,6 | 76,8 | 0 | 1,8 | 283 | 64 | 983 |
| 38 | El Tambo INIA | 05-05-2026 09:15 | 13,1 | 75,4 | 0 | 0,9 | 284 | 50 | 983 |
| 37 | El Tambo INIA | 05-05-2026 09:00 | 13,3 | 62,8 | 0 | 0,4 | 108 | 44 | 984 |
| 36 | El Tambo INIA | 05-05-2026 08:45 | 12,9 | 65,6 | 0 | 2 | 108 | 35 | 983 |
| 35 | El Tambo INIA | 05-05-2026 08:30 | 13,1 | 66,8 | 0 | 2 | 90 | 31 | 983 |
| 34 | El Tambo INIA | 05-05-2026 08:15 | 12,5 | 67,8 | 0 | 1,9 | 105 | 28 | 985 |
| 33 | El Tambo INIA | 05-05-2026 08:00 | 12,5 | 71,9 | 0 | 1,5 | 88 | 10 | 984 |
| 32 | El Tambo INIA | 05-05-2026 07:45 | 11,9 | 72 | 0 | 2,1 | 125 | 3 | 985 |
| 31 | El Tambo INIA | 05-05-2026 07:30 | 11,4 | 78,2 | 0 | 1,8 | 116 | 1 | 986 |
| 30 | El Tambo INIA | 05-05-2026 07:15 | 11,1 | 82,1 | 0 | 1,3 | 83 | 0 | 986 |
| 29 | El Tambo INIA | 05-05-2026 07:00 | 11,5 | 85,4 | 0 | 0,2 | 353 | 0 | 986 |
| 28 | El Tambo INIA | 05-05-2026 06:45 | 11,5 | 79,3 | 0 | 0,3 | 211 | 0 | 986 |
| 27 | El Tambo INIA | 05-05-2026 06:30 | 11,5 | 81,2 | 0 | 0,6 | 190 | 0 | 986 |
| 26 | El Tambo INIA | 05-05-2026 06:15 | 12,1 | 80,2 | 0 | 0,6 | 78 | 0 | 986 |
| 25 | El Tambo INIA | 05-05-2026 06:00 | 12,1 | 76,9 | 0 | 0,6 | 36 | 0 | 985 |
| 24 | El Tambo INIA | 05-05-2026 05:45 | 12 | 75,5 | 0 | 1,8 | 77 | 0 | 985 |
| 23 | El Tambo INIA | 05-05-2026 05:30 | 10,9 | 80,6 | 0 | 1,1 | 82 | 0 | 985 |
| 22 | El Tambo INIA | 05-05-2026 05:15 | 10,2 | 84 | 0 | 0,5 | 65 | 0 | 985 |
| 21 | El Tambo INIA | 05-05-2026 05:00 | 10 | 91 | 0 | 0 | 115 | 0 | 985 |
| 20 | El Tambo INIA | 05-05-2026 04:45 | 10,1 | 89,8 | 0 | 0 | 0 | 0 | 984 |
| 19 | El Tambo INIA | 05-05-2026 04:30 | 10 | 88,9 | 0 | 0,1 | 73 | 0 | 984 |
| 18 | El Tambo INIA | 05-05-2026 04:15 | 9,8 | 90,1 | 0 | 0,5 | 85 | 0 | 984 |
| 17 | El Tambo INIA | 05-05-2026 04:00 | 9,9 | 90,8 | 0 | 0,1 | 68 | 0 | 984 |
| 16 | El Tambo INIA | 05-05-2026 03:45 | 10 | 89,4 | 0 | 0 | 0 | 0 | 985 |
| 15 | El Tambo INIA | 05-05-2026 03:30 | 10,4 | 87,8 | 0 | 0 | 0 | 0 | 985 |
| 14 | El Tambo INIA | 05-05-2026 03:15 | 11,1 | 85,8 | 0 | 0,1 | 278 | 0 | 985 |
| 13 | El Tambo INIA | 05-05-2026 03:00 | 11,5 | 79,2 | 0 | 0,4 | 102 | 0 | 985 |
| 12 | El Tambo INIA | 05-05-2026 02:45 | 11,2 | 76,6 | 0 | 1,1 | 99 | 0 | 985 |
| 11 | El Tambo INIA | 05-05-2026 02:30 | 10,8 | 81,3 | 0 | 0,9 | 113 | 0 | 985 |
| 10 | El Tambo INIA | 05-05-2026 02:15 | 10,9 | 83,7 | 0 | 1,2 | 79 | 0 | 985 |
| 9 | El Tambo INIA | 05-05-2026 02:00 | 10,9 | 83,9 | 0 | 0,9 | 82 | 0 | 985 |
| 8 | El Tambo INIA | 05-05-2026 01:45 | 10,6 | 84 | 0 | 0,8 | 75 | 0 | 985 |
| 7 | El Tambo INIA | 05-05-2026 01:30 | 10,2 | 87,9 | 0 | 0,1 | 141 | 0 | 985 |
| 6 | El Tambo INIA | 05-05-2026 01:15 | 10,2 | 88,9 | 0 | 0 | 0 | 0 | 985 |
| 5 | El Tambo INIA | 05-05-2026 01:00 | 10,2 | 89,9 | 0 | 0 | 68 | 0 | 985 |
| 4 | El Tambo INIA | 05-05-2026 00:45 | 10,4 | 88,2 | 0 | 0,6 | 85 | 0 | 985 |
| 3 | El Tambo INIA | 05-05-2026 00:30 | 10,5 | 86 | 0 | 1,4 | 73 | 0 | 985 |
| 2 | El Tambo INIA | 05-05-2026 00:15 | 10,3 | 86,6 | 0 | 1,4 | 72 | 0 | 985 |
| 1 | El Tambo INIA | 05-05-2026 00:00 | 9,9 | 91,1 | 0 | 0,6 | 86 | 0 | 986 |